Weather observations for the past three days for
Wilkes-Barre - Scranton, Wilkes-Barre / Scranton International Airport
Imperial (Metric)
Date Time (edt) Wind (mph) Vis. (mi.) Weather Sky Cond. Temperature (ºF) Relative Humidity Wind Chill (°F) Heat Index (°F) Pressure Precipitation (in)
Air Dwpt 6 hour altimeter (in) sea level (mb) 1 hr 3 hr 6 hr
Max. Min.
13 16:54 S 8 G 18 10.00 A Few Clouds FEW070 84.9 54 35% 83 29.93 1012.9
13 15:54 SW 8 G 17 10.00 Fair CLR 84.9 54 35% 83 29.95 1013.5
13 14:54 SW 10 G 20 9.00 A Few Clouds FEW060 84.9 55.9 37% 84 29.97 1014.0
13 13:54 W 12 9.00 Fair CLR 84.9 57 86 64 39% 84 29.98 1014.5
13 12:54 W 13 G 23 10.00 Fair CLR 84 54 36% 83 29.99 1014.8
13 11:54 SW 9 9.00 Fair CLR 82 54 38% 81 30 1015.2
13 10:54 SW 9 9.00 Fair CLR 78.1 54 43% 79 30.02 1015.8
13 09:54 W 5 8.00 Fair CLR 73 55.9 55% 30.03 1016.1
13 08:54 Calm 7.00 Fair CLR 68 55 63% 30.04 1016.6
13 07:54 Calm 8.00 Fair CLR 63 53.1 63 53.1 70% 30.04 1016.5
13 05:54 SE 3 7.00 Fair CLR 54 50 87% 30.04 1016.6
13 04:54 Calm 9.00 Fair CLR 54 48.9 83% 30.03 1016.3
13 03:54 E 3 9.00 Fair CLR 55 48.9 80% 30.01 1015.5
13 02:54 Calm 9.00 NULL NULL 55.9 48.9 77% 30.01 1015.7
13 01:54 E 6 9.00 Fair CLR 57 48.9 72 57 74% 30.01 1015.6
13 00:54 E 6 9.00 Fair CLR 57.9 48.9 72% 30.01 1015.9
12 23:54 E 7 9.00 Fair CLR 59 50 72% 30.01 1015.8
12 22:54 E 7 10.00 Fair CLR 61 50 67% 30.02 1015.9
12 21:54 E 6 10.00 Fair CLR 64 50 60% 30.01 1015.8
12 20:54 E 5 9.00 Fair CLR 66 53.1 63% 30 1015.4
12 19:54 E 5 9.00 Mostly Cloudy BKN075 72 52 78.1 72 50% 29.99 1015.1
12 18:54 E 3 9.00 Partly Cloudy SCT065 75 48.9 40% 77 29.98 1014.8
12 17:54 W 3 9.00 A Few Clouds FEW070 75 46.9 37% 77 29.99 1014.9
12 16:54 Calm 9.00 Fair CLR 75.9 48.9 39% 78 30 1015.3
12 15:54 NW 5 9.00 A Few Clouds FEW055 77 51.1 40% 78 30 1015.5
12 14:54 Vrbl 5 9.00 A Few Clouds FEW055 73.9 51.1 45% 30.01 1015.8
12 13:54 NW 6 9.00 Overcast OVC050 73 52 73 57 48% 30.03 1016.5
12 12:54 Calm 8.00 Overcast OVC041 69.1 52 55% 30.05 1017.3
12 11:54 Vrbl 3 9.00 Partly Cloudy SCT049 69.1 53.1 57% 30.06 1017.5
12 09:54 Calm 8.00 A Few Clouds FEW048 64 53.1 68% 30.07 1017.8
12 08:54 Calm 8.00 Overcast OVC047 60.1 53.1 78% 30.08 1018.0
12 07:54 Calm 7.00 Overcast OVC044 57.9 52 57.9 51.1 81% 30.08 0.0
12 06:54 Calm 8.00 Overcast OVC046 55 50 83% 30.07 1017.7
12 05:54 E 5 8.00 Fair CLR 52 48 86% 30.05 1017.3
12 04:54 E 6 10.00 Fair CLR 53.1 48.9 86% 30.03 1016.5
12 03:54 SE 3 9.00 Partly Cloudy SCT049 53.1 50 89% 30.03 1016.6
12 02:54 E 5 10.00 Mostly Cloudy BKN050 55 50 83% 30.03 1016.5
12 01:54 E 6 9.00 Mostly Cloudy BKN049 55 51.1 87% 30.04 1016.8
12 00:54 E 5 9.00 A Few Clouds FEW050 55 51.1 87% 30.04 1016.7
11 23:54 E 5 9.00 Overcast OVC050 57 51.1 81% 30.04 1016.7
11 22:54 E 5 10.00 Mostly Cloudy BKN050 55.9 51.1 84% 30.03 1016.6
11 21:54 E 3 10.00 A Few Clouds FEW047 57 51.1 81% 30.02 1016.3
11 20:54 N 5 10.00 NULL NULL 61 50 67% 29.99 1015.3
11 18:54 N 10 10.00 Overcast OVC036 68 51.1 55% 29.97 1014.5
11 17:54 N 7 10.00 Mostly Cloudy SCT034 BKN050 66.9 50 55% 29.97 1014.3
11 16:54 N 8 9.00 Overcast SCT036 OVC045 66.9 51.1 57% 29.97 1014.4
11 15:54 N 8 9.00 Overcast SCT033 OVC046 66.9 50 55% 29.97 1014.4
11 14:54 NW 10 9.00 Overcast SCT041 OVC048 68 50 53% 29.98 1014.6
11 13:54 N 7 10.00 Overcast OVC040 66 48.9 68 57.9 54% 29.98 1014.6
11 12:54 Vrbl 6 10.00 Overcast BKN034 OVC042 66 48.9 54% 29.97 1014.4
11 11:54 N 8 10.00 Overcast OVC035 64.9 48.9 56% 29.97 1014.4
11 10:54 Vrbl 3 10.00 Mostly Cloudy BKN026 BKN043 63 48.9 60% 29.97 1014.2
11 09:54 NW 5 9.00 Overcast BKN025 OVC041 60.1 48.9 67% 29.97 1014.5
11 08:54 N 3 9.00 Overcast BKN022 OVC040 59 48.9 69% 29.97 1014.4
11 07:54 N 6 9.00 Overcast OVC019 57.9 48.9 59 57 72% 29.95 1013.8
11 06:54 N 3 9.00 Overcast BKN021 OVC039 57.9 48 70% 29.93 1013.0
11 05:54 N 6 9.00 Overcast FEW024 OVC040 57.9 48 70% 29.91 1012.2
11 04:54 NW 5 10.00 Overcast SCT025 BKN034 OVC042 57.9 48 70% 29.89 1011.6
11 03:54 Calm 10.00 Overcast OVC028 57.9 48 70% 29.88 1011.3
11 02:54 N 7 10.00 Overcast OVC029 59 48.9 69% 29.87 1010.9
11 01:54 N 7 10.00 Overcast OVC029 59 48.9 66 59 69% 29.87 1010.8
11 00:54 N 6 10.00 Overcast BKN024 OVC029 61 50 67% 29.86 1010.6
10 23:54 N 9 10.00 Overcast FEW025 BKN035 OVC065 62.1 50 65% 29.84 1009.9
10 22:54 N 10 10.00 Overcast FEW044 OVC060 63 50 63% 29.82 1009.3
10 21:54 N 8 10.00 Overcast OVC060 64 50 60% 29.8 1008.4
10 20:54 NW 3 10.00 Overcast OVC060 64.9 50 59% 29.78 1008.0
10 19:54 N 5 10.00 Overcast OVC060 66 50 73 66 56% 29.77 1007.6
10 18:54 NW 9 8.00 Overcast OVC070 66.9 48.9 53% 29.75 1007.0
10 17:54 NW 8 9.00 Overcast SCT055 OVC075 66.9 48 51% 29.75 1006.9
Date Time (edt) Wind (mph) Vis. (mi.) Weather Sky Cond. Air Dwpt Max. Min. Relative Humidity Wind Chill (°F) Heat Index (°F) altimeter (in) sea level (mb) 1 hr 3 hr 6 hr
6 hour
Temperature (ºF) Pressure Precipitation (in)